Year,Month,Day,Hour,Minute,Value (Times are PST for temperature in C)
2010,08,15,00,00,20.90
2010,08,15,00,01,20.90
2010,08,15,00,02,20.90
2010,08,15,00,03,20.90
2010,08,15,00,04,20.90
2010,08,15,00,05,20.80
2010,08,15,00,06,20.80
2010,08,15,00,07,20.80
2010,08,15,00,08,20.70
2010,08,15,00,09,20.70
2010,08,15,00,10,20.70
2010,08,15,00,11,20.70
2010,08,15,00,12,20.60
2010,08,15,00,13,20.60
2010,08,15,00,14,20.60
2010,08,15,00,15,20.50
2010,08,15,00,16,20.50
2010,08,15,00,17,20.50
2010,08,15,00,18,20.50
2010,08,15,00,19,20.40
2010,08,15,00,20,20.40
2010,08,15,00,21,20.40
2010,08,15,00,22,20.40
2010,08,15,00,23,20.50
2010,08,15,00,24,20.50
2010,08,15,00,25,20.50
2010,08,15,00,26,20.50
2010,08,15,00,27,20.60
2010,08,15,00,28,20.60
2010,08,15,00,29,20.60
2010,08,15,00,30,20.60
2010,08,15,00,31,20.70
2010,08,15,00,32,20.70
2010,08,15,00,33,20.70
2010,08,15,00,34,20.70
2010,08,15,00,35,20.70
2010,08,15,00,36,20.70
2010,08,15,00,37,20.80
2010,08,15,00,38,20.80
2010,08,15,00,39,20.80
2010,08,15,00,40,20.90
2010,08,15,00,41,20.90
2010,08,15,00,42,20.90
2010,08,15,00,43,20.90
2010,08,15,00,44,21.00
2010,08,15,00,45,21.00
2010,08,15,00,46,21.00
2010,08,15,00,47,21.00
2010,08,15,00,48,21.00
2010,08,15,00,49,21.00
2010,08,15,00,50,21.00
2010,08,15,00,51,21.00
2010,08,15,00,52,21.00
2010,08,15,00,53,21.00
2010,08,15,00,54,21.00
2010,08,15,00,55,21.00
2010,08,15,00,56,21.00
2010,08,15,00,57,20.90
2010,08,15,00,58,20.90
2010,08,15,00,59,20.80
2010,08,15,01,00,20.80
2010,08,15,01,01,20.70
2010,08,15,01,02,20.70
2010,08,15,01,03,20.60
2010,08,15,01,04,20.60
2010,08,15,01,05,20.50
2010,08,15,01,06,20.50
2010,08,15,01,07,20.40
2010,08,15,01,08,20.40
2010,08,15,01,09,20.40
2010,08,15,01,10,20.30
2010,08,15,01,11,20.30
2010,08,15,01,12,20.30
2010,08,15,01,13,20.30
2010,08,15,01,14,20.30
2010,08,15,01,15,20.20
2010,08,15,01,16,20.20
2010,08,15,01,17,20.20
2010,08,15,01,18,20.20
2010,08,15,01,19,20.20
2010,08,15,01,20,20.20
2010,08,15,01,21,20.20
2010,08,15,01,22,20.20
2010,08,15,01,23,20.20
2010,08,15,01,24,20.20
2010,08,15,01,25,20.20
2010,08,15,01,26,20.20
2010,08,15,01,27,20.20
2010,08,15,01,28,20.20
2010,08,15,01,29,20.20
2010,08,15,01,30,20.20
2010,08,15,01,31,20.20
2010,08,15,01,32,20.20
2010,08,15,01,33,20.20
2010,08,15,01,34,20.20
2010,08,15,01,35,20.20
2010,08,15,01,36,20.20
2010,08,15,01,37,20.20
2010,08,15,01,38,20.20
2010,08,15,01,39,20.20
2010,08,15,01,40,20.20
2010,08,15,01,41,20.20
2010,08,15,01,42,20.20
2010,08,15,01,43,20.20
2010,08,15,01,44,20.20
2010,08,15,01,45,20.20
2010,08,15,01,46,20.30
2010,08,15,01,47,20.30
2010,08,15,01,48,20.30
2010,08,15,01,49,20.30
2010,08,15,01,50,20.30
2010,08,15,01,51,20.30
2010,08,15,01,52,20.30
2010,08,15,01,53,20.30
2010,08,15,01,54,20.30
2010,08,15,01,55,20.30
2010,08,15,01,56,20.30
2010,08,15,01,57,20.40
2010,08,15,01,58,20.40
2010,08,15,01,59,20.50
2010,08,15,02,00,20.50
2010,08,15,02,01,20.50
2010,08,15,02,02,20.50
2010,08,15,02,03,20.60
2010,08,15,02,04,20.60
2010,08,15,02,05,20.60
2010,08,15,02,06,20.70
2010,08,15,02,07,20.70
2010,08,15,02,08,20.70
2010,08,15,02,09,20.80
2010,08,15,02,10,20.80
2010,08,15,02,11,20.80
2010,08,15,02,12,20.80
2010,08,15,02,13,20.80
2010,08,15,02,14,20.90
2010,08,15,02,15,20.80
2010,08,15,02,16,20.80
2010,08,15,02,17,20.80
2010,08,15,02,18,20.80
2010,08,15,02,19,20.70
2010,08,15,02,20,20.70
2010,08,15,02,21,20.60
2010,08,15,02,22,20.60
2010,08,15,02,23,20.50
2010,08,15,02,24,20.50
2010,08,15,02,25,20.50
2010,08,15,02,26,20.40
2010,08,15,02,27,20.40
2010,08,15,02,28,20.40
2010,08,15,02,29,20.40
2010,08,15,02,30,20.40
2010,08,15,02,31,20.30
2010,08,15,02,32,20.30
2010,08,15,02,33,20.30
2010,08,15,02,34,20.30
2010,08,15,02,35,20.30
2010,08,15,02,36,20.30
2010,08,15,02,37,20.40
2010,08,15,02,38,20.40
2010,08,15,02,39,20.40
2010,08,15,02,40,20.40
2010,08,15,02,41,20.40
2010,08,15,02,42,20.40
2010,08,15,02,43,20.40
2010,08,15,02,44,20.30
2010,08,15,02,45,20.30
2010,08,15,02,46,20.30
2010,08,15,02,47,20.40
2010,08,15,02,48,20.40
2010,08,15,02,49,20.40
2010,08,15,02,50,20.40
2010,08,15,02,51,20.40
2010,08,15,02,52,20.40
2010,08,15,02,53,20.40
2010,08,15,02,54,20.40
2010,08,15,02,55,20.50
2010,08,15,02,56,20.50
2010,08,15,02,57,20.50
2010,08,15,02,58,20.50
2010,08,15,02,59,20.50
2010,08,15,03,00,20.50
2010,08,15,03,01,20.50
2010,08,15,03,02,20.50
2010,08,15,03,03,20.50
2010,08,15,03,04,20.50
2010,08,15,03,05,20.50
2010,08,15,03,06,20.50
2010,08,15,03,07,20.50
2010,08,15,03,08,20.50
2010,08,15,03,09,20.40
2010,08,15,03,10,20.40
2010,08,15,03,11,20.40
2010,08,15,03,12,20.40
2010,08,15,03,13,20.40
2010,08,15,03,14,20.40
2010,08,15,03,15,20.40
2010,08,15,03,16,20.40
2010,08,15,03,17,20.40
2010,08,15,03,18,20.50
2010,08,15,03,19,20.50
2010,08,15,03,20,20.50
2010,08,15,03,21,20.50
2010,08,15,03,22,20.50
2010,08,15,03,23,20.50
2010,08,15,03,24,20.50
2010,08,15,03,25,20.50
2010,08,15,03,26,20.50
2010,08,15,03,27,20.50
2010,08,15,03,28,20.40
2010,08,15,03,29,20.40
2010,08,15,03,30,20.40
2010,08,15,03,31,20.40
2010,08,15,03,32,20.30
2010,08,15,03,33,20.30
2010,08,15,03,34,20.30
2010,08,15,03,35,20.20
2010,08,15,03,36,20.20
2010,08,15,03,37,20.20
2010,08,15,03,38,20.20
2010,08,15,03,39,20.20
2010,08,15,03,40,20.30
2010,08,15,03,41,20.30
2010,08,15,03,42,20.40
2010,08,15,03,43,20.40
2010,08,15,03,44,20.40
2010,08,15,03,45,20.40
2010,08,15,03,46,20.40
2010,08,15,03,47,20.40
2010,08,15,03,48,20.40
2010,08,15,03,49,20.40
2010,08,15,03,50,20.30
2010,08,15,03,51,20.30
2010,08,15,03,52,20.30
2010,08,15,03,53,20.30
2010,08,15,03,54,20.20
2010,08,15,03,55,20.20
2010,08,15,03,56,20.20
2010,08,15,03,57,20.10
2010,08,15,03,58,20.10
2010,08,15,03,59,20.00
2010,08,15,04,00,19.90
2010,08,15,04,01,19.90
2010,08,15,04,02,19.90
2010,08,15,04,03,19.90
2010,08,15,04,04,19.80
2010,08,15,04,05,19.80
2010,08,15,04,06,19.80
2010,08,15,04,07,19.80
2010,08,15,04,08,19.70
2010,08,15,04,09,19.70
2010,08,15,04,10,19.70
2010,08,15,04,11,19.70
2010,08,15,04,12,19.60
2010,08,15,04,13,19.60
2010,08,15,04,14,19.60
2010,08,15,04,15,19.60
2010,08,15,04,16,19.50
2010,08,15,04,17,19.50
2010,08,15,04,18,19.50
2010,08,15,04,19,19.40
2010,08,15,04,20,19.40
2010,08,15,04,21,19.40
2010,08,15,04,22,19.30
2010,08,15,04,23,19.30
2010,08,15,04,24,19.30
2010,08,15,04,25,19.20
2010,08,15,04,26,19.20
2010,08,15,04,27,19.20
2010,08,15,04,28,19.20
2010,08,15,04,29,19.30
2010,08,15,04,30,19.40
2010,08,15,04,31,19.50
2010,08,15,04,32,19.70
2010,08,15,04,33,19.80
2010,08,15,04,34,19.90
2010,08,15,04,35,20.10
2010,08,15,04,36,20.20
2010,08,15,04,37,20.30
2010,08,15,04,38,20.40
2010,08,15,04,39,20.60
2010,08,15,04,40,20.70
2010,08,15,04,41,20.80
2010,08,15,04,42,20.90
2010,08,15,04,43,21.00
2010,08,15,04,44,21.00
2010,08,15,04,45,21.10
2010,08,15,04,46,21.10
2010,08,15,04,47,21.20
2010,08,15,04,48,21.20
2010,08,15,04,49,21.20
2010,08,15,04,50,21.20
2010,08,15,04,51,21.30
2010,08,15,04,52,21.30
2010,08,15,04,53,21.30
2010,08,15,04,54,21.30
2010,08,15,04,55,21.30
2010,08,15,04,56,21.30
2010,08,15,04,57,21.30
2010,08,15,04,58,21.30
2010,08,15,04,59,21.30
2010,08,15,05,00,21.30
2010,08,15,05,01,21.30
2010,08,15,05,02,21.30
2010,08,15,05,03,21.30
2010,08,15,05,04,21.30
2010,08,15,05,05,21.30
2010,08,15,05,06,21.30
2010,08,15,05,07,21.30
2010,08,15,05,08,21.30
2010,08,15,05,09,21.30
2010,08,15,05,10,21.30
2010,08,15,05,11,21.30
2010,08,15,05,12,21.30
2010,08,15,05,13,21.30
2010,08,15,05,14,21.30
2010,08,15,05,15,21.30
2010,08,15,05,16,21.30
2010,08,15,05,17,21.30
2010,08,15,05,18,21.40
2010,08,15,05,19,21.40
2010,08,15,05,20,21.50
2010,08,15,05,21,21.60
2010,08,15,05,22,21.60
2010,08,15,05,23,21.60
2010,08,15,05,24,21.70
2010,08,15,05,25,21.80
2010,08,15,05,26,21.90
2010,08,15,05,27,22.00
2010,08,15,05,28,22.00
2010,08,15,05,29,22.00
2010,08,15,05,30,22.10
2010,08,15,05,31,22.10
2010,08,15,05,32,22.10
2010,08,15,05,33,22.20
2010,08,15,05,34,22.20
2010,08,15,05,35,22.20
2010,08,15,05,36,22.30
2010,08,15,05,37,22.40
2010,08,15,05,38,22.40
2010,08,15,05,39,22.50
2010,08,15,05,40,22.50
2010,08,15,05,41,22.50
2010,08,15,05,42,22.50
2010,08,15,05,43,22.50
2010,08,15,05,44,22.50
2010,08,15,05,45,22.50
2010,08,15,05,46,22.40
2010,08,15,05,47,22.40
2010,08,15,05,48,22.40
2010,08,15,05,49,22.30
2010,08,15,05,50,22.30
2010,08,15,05,51,22.30
2010,08,15,05,52,22.20
2010,08,15,05,53,22.10
2010,08,15,05,54,22.10
2010,08,15,05,55,22.10
2010,08,15,05,56,22.00
2010,08,15,05,57,22.00
2010,08,15,05,58,22.00
2010,08,15,05,59,22.00
2010,08,15,06,00,22.00
2010,08,15,06,01,22.00
2010,08,15,06,02,22.10
2010,08,15,06,03,22.10
2010,08,15,06,04,22.10
2010,08,15,06,05,22.20
2010,08,15,06,06,22.20
2010,08,15,06,07,22.20
2010,08,15,06,08,22.30
2010,08,15,06,09,22.30
2010,08,15,06,10,22.30
2010,08,15,06,11,22.40
2010,08,15,06,12,22.40
2010,08,15,06,13,22.50
2010,08,15,06,14,22.50
2010,08,15,06,15,22.50
2010,08,15,06,16,22.50
2010,08,15,06,17,22.50
2010,08,15,06,18,22.50
2010,08,15,06,19,22.40
2010,08,15,06,20,22.40
2010,08,15,06,21,22.40
2010,08,15,06,22,22.30
2010,08,15,06,23,22.30
2010,08,15,06,24,22.20
2010,08,15,06,25,22.20
2010,08,15,06,26,22.10
2010,08,15,06,27,22.10
2010,08,15,06,28,22.00
2010,08,15,06,29,22.00
2010,08,15,06,30,21.90
2010,08,15,06,31,21.90
2010,08,15,06,32,21.80
2010,08,15,06,33,21.70
2010,08,15,06,34,21.60
2010,08,15,06,35,21.60
2010,08,15,06,36,21.60
2010,08,15,06,37,21.40
2010,08,15,06,38,21.40
2010,08,15,06,39,21.30
2010,08,15,06,40,21.30
2010,08,15,06,41,21.30
2010,08,15,06,42,21.30
2010,08,15,06,43,21.20
2010,08,15,06,44,21.20
2010,08,15,06,45,21.10
2010,08,15,06,46,21.10
2010,08,15,06,47,21.10
2010,08,15,06,48,21.00
2010,08,15,06,49,21.00
2010,08,15,06,50,21.00
2010,08,15,06,51,20.90
2010,08,15,06,52,20.90
2010,08,15,06,53,20.90
2010,08,15,06,54,20.90
2010,08,15,06,55,20.90
2010,08,15,06,56,20.90
2010,08,15,06,57,20.90
2010,08,15,06,58,20.90
2010,08,15,06,59,20.90
2010,08,15,07,00,20.90
2010,08,15,07,01,20.90
2010,08,15,07,02,20.90
2010,08,15,07,03,20.90
2010,08,15,07,04,20.90
2010,08,15,07,05,20.90
2010,08,15,07,06,20.90
2010,08,15,07,07,20.90
2010,08,15,07,08,20.90
2010,08,15,07,09,20.90
2010,08,15,07,10,20.90
2010,08,15,07,11,20.90
2010,08,15,07,12,20.90
2010,08,15,07,13,20.90
2010,08,15,07,14,20.90
2010,08,15,07,15,20.90
2010,08,15,07,16,20.90
2010,08,15,07,17,20.90
2010,08,15,07,18,20.90
2010,08,15,07,19,21.00
2010,08,15,07,20,21.10
2010,08,15,07,21,21.20
2010,08,15,07,22,21.20
2010,08,15,07,23,21.30
2010,08,15,07,24,21.30
2010,08,15,07,25,21.30
2010,08,15,07,26,21.30
2010,08,15,07,27,21.30
2010,08,15,07,28,21.30
2010,08,15,07,29,21.30
2010,08,15,07,30,21.30
2010,08,15,07,31,21.30
2010,08,15,07,32,21.30
2010,08,15,07,33,21.40
2010,08,15,07,34,21.40
2010,08,15,07,35,21.50
2010,08,15,07,36,21.60
2010,08,15,07,37,21.60
2010,08,15,07,38,21.60
2010,08,15,07,39,21.50
2010,08,15,07,40,21.40
2010,08,15,07,41,21.40
2010,08,15,07,42,21.50
2010,08,15,07,43,21.60
2010,08,15,07,44,21.60
2010,08,15,07,45,21.60
2010,08,15,07,46,21.70
2010,08,15,07,47,21.80
2010,08,15,07,48,21.80
2010,08,15,07,49,21.90
2010,08,15,07,50,21.90
2010,08,15,07,51,22.00
2010,08,15,07,52,22.00
2010,08,15,07,53,22.00
2010,08,15,07,54,22.00
2010,08,15,07,55,22.10
2010,08,15,07,56,22.10
2010,08,15,07,57,22.10
2010,08,15,07,58,22.10
2010,08,15,07,59,22.20
2010,08,15,08,00,22.20
2010,08,15,08,01,22.20
2010,08,15,08,02,22.20
2010,08,15,08,03,22.20
2010,08,15,08,04,22.20
2010,08,15,08,05,22.20
2010,08,15,08,06,22.20
2010,08,15,08,07,22.20
2010,08,15,08,08,22.20
2010,08,15,08,09,22.20
2010,08,15,08,10,22.20
2010,08,15,08,11,22.20
2010,08,15,08,12,22.30
2010,08,15,08,13,22.30
2010,08,15,08,14,22.40
2010,08,15,08,15,22.40
2010,08,15,08,16,22.50
2010,08,15,08,17,22.50
2010,08,15,08,18,22.50
2010,08,15,08,19,22.60
2010,08,15,08,20,22.60
2010,08,15,08,21,22.60
2010,08,15,08,22,22.60
2010,08,15,08,23,22.60
2010,08,15,08,24,22.60
2010,08,15,08,25,22.60
2010,08,15,08,26,22.60
2010,08,15,08,27,22.70
2010,08,15,08,28,22.70
2010,08,15,08,29,22.70
2010,08,15,08,30,22.70
2010,08,15,08,31,22.70
2010,08,15,08,32,22.70
2010,08,15,08,33,22.70
2010,08,15,08,34,22.70
2010,08,15,08,35,22.70
2010,08,15,08,36,22.70
2010,08,15,08,37,22.70
2010,08,15,08,38,22.70
2010,08,15,08,39,22.70
2010,08,15,08,40,22.80
2010,08,15,08,41,22.80
2010,08,15,08,42,22.80
2010,08,15,08,43,22.80
2010,08,15,08,44,22.90
2010,08,15,08,45,22.90
2010,08,15,08,46,22.90
2010,08,15,08,47,22.90
2010,08,15,08,48,22.90
2010,08,15,08,49,23.00
2010,08,15,08,50,23.10
2010,08,15,08,51,23.10
2010,08,15,08,52,23.10
2010,08,15,08,53,23.10
2010,08,15,08,54,23.10
2010,08,15,08,55,23.10
2010,08,15,08,56,23.20
2010,08,15,08,57,23.30
2010,08,15,08,58,23.30
2010,08,15,08,59,23.30
2010,08,15,09,00,23.40
2010,08,15,09,01,23.40
2010,08,15,09,02,23.40
2010,08,15,09,03,23.50
2010,08,15,09,04,23.60
2010,08,15,09,05,23.60
2010,08,15,09,06,23.60
2010,08,15,09,07,23.60
2010,08,15,09,08,23.70
2010,08,15,09,09,23.70
2010,08,15,09,10,23.70
2010,08,15,09,11,23.70
2010,08,15,09,12,23.70
2010,08,15,09,13,23.70
2010,08,15,09,14,23.70
2010,08,15,09,15,23.70
2010,08,15,09,16,23.70
2010,08,15,09,17,23.70
2010,08,15,09,18,23.80
2010,08,15,09,19,23.80
2010,08,15,09,20,23.80
2010,08,15,09,21,23.80
2010,08,15,09,22,23.90
2010,08,15,09,23,23.90
2010,08,15,09,24,23.90
2010,08,15,09,25,24.00
2010,08,15,09,26,24.10
2010,08,15,09,27,24.10
2010,08,15,09,28,24.10
2010,08,15,09,29,24.10
2010,08,15,09,30,24.10
2010,08,15,09,31,24.00
2010,08,15,09,32,23.90
2010,08,15,09,33,24.10
2010,08,15,09,34,24.10
2010,08,15,09,35,24.10
2010,08,15,09,36,24.10
2010,08,15,09,37,24.10
2010,08,15,09,38,24.10
2010,08,15,09,39,24.10
2010,08,15,09,40,24.10
2010,08,15,09,41,24.10
2010,08,15,09,42,24.10
2010,08,15,09,43,24.10
2010,08,15,09,44,24.10
2010,08,15,09,45,24.10
2010,08,15,09,46,24.10
2010,08,15,09,47,24.10
2010,08,15,09,48,24.10
2010,08,15,09,49,24.10
2010,08,15,09,50,24.10
2010,08,15,09,51,24.20
2010,08,15,09,52,24.20
2010,08,15,09,53,24.20
2010,08,15,09,54,24.30
2010,08,15,09,55,24.40
2010,08,15,09,56,24.40
2010,08,15,09,57,24.40
2010,08,15,09,58,24.40
2010,08,15,09,59,24.30
2010,08,15,10,00,24.40
2010,08,15,10,01,24.40
2010,08,15,10,02,24.50
2010,08,15,10,03,24.50
2010,08,15,10,04,24.50
2010,08,15,10,05,24.50
2010,08,15,10,06,24.50
2010,08,15,10,07,24.60
2010,08,15,10,08,24.60
2010,08,15,10,09,24.60
2010,08,15,10,10,24.60
2010,08,15,10,11,24.60
2010,08,15,10,12,24.70
2010,08,15,10,13,24.80
2010,08,15,10,14,24.90
2010,08,15,10,15,24.90
2010,08,15,10,16,25.00
2010,08,15,10,17,25.00
2010,08,15,10,18,25.00
2010,08,15,10,19,24.90
2010,08,15,10,20,24.90
2010,08,15,10,21,24.90
2010,08,15,10,22,24.90
2010,08,15,10,23,24.90
2010,08,15,10,24,24.90
2010,08,15,10,25,25.00
2010,08,15,10,26,25.10
2010,08,15,10,27,25.10
2010,08,15,10,28,25.00
2010,08,15,10,29,25.00
2010,08,15,10,30,25.10
2010,08,15,10,31,25.10
2010,08,15,10,32,25.10
2010,08,15,10,33,25.20
2010,08,15,10,34,25.20
2010,08,15,10,35,25.30
2010,08,15,10,36,25.30
2010,08,15,10,37,25.30
2010,08,15,10,38,25.30
2010,08,15,10,39,25.30
2010,08,15,10,40,25.30
2010,08,15,10,41,25.40
2010,08,15,10,42,25.40
2010,08,15,10,43,25.50
2010,08,15,10,44,25.50
2010,08,15,10,45,25.60
2010,08,15,10,46,25.60
2010,08,15,10,47,25.60
2010,08,15,10,48,25.60
2010,08,15,10,49,25.60
2010,08,15,10,50,25.60
2010,08,15,10,51,25.60
2010,08,15,10,52,25.60
2010,08,15,10,53,25.60
2010,08,15,10,54,25.70
2010,08,15,10,55,25.70
2010,08,15,10,56,25.80
2010,08,15,10,57,25.90
2010,08,15,10,58,26.00
2010,08,15,10,59,26.10
2010,08,15,11,00,26.10
2010,08,15,11,01,26.20
2010,08,15,11,02,26.20
2010,08,15,11,03,26.20
2010,08,15,11,04,26.20
2010,08,15,11,05,26.10
2010,08,15,11,06,26.10
2010,08,15,11,07,26.10
2010,08,15,11,08,26.20
2010,08,15,11,09,26.30
2010,08,15,11,10,26.40
2010,08,15,11,11,26.40
2010,08,15,11,12,26.40
2010,08,15,11,13,26.40
2010,08,15,11,14,26.40
2010,08,15,11,15,26.40
2010,08,15,11,16,26.40
2010,08,15,11,17,26.60
2010,08,15,11,18,26.60
2010,08,15,11,19,26.80
2010,08,15,11,20,26.90
2010,08,15,11,21,27.00
2010,08,15,11,22,27.10
2010,08,15,11,23,27.20
2010,08,15,11,24,27.30
2010,08,15,11,25,27.30
2010,08,15,11,26,27.30
2010,08,15,11,27,27.30
2010,08,15,11,28,27.40
2010,08,15,11,29,27.40
2010,08,15,11,30,27.50
2010,08,15,11,31,27.60
2010,08,15,11,32,27.60
2010,08,15,11,33,27.60
2010,08,15,11,34,27.60
2010,08,15,11,35,27.60
2010,08,15,11,36,27.60
2010,08,15,11,37,27.60
2010,08,15,11,38,27.60
2010,08,15,11,39,27.70
2010,08,15,11,40,27.80
2010,08,15,11,41,27.90
2010,08,15,11,42,28.00
2010,08,15,11,43,28.10
2010,08,15,11,44,28.20
2010,08,15,11,45,28.30
2010,08,15,11,46,28.30
2010,08,15,11,47,28.40
2010,08,15,11,48,28.40
2010,08,15,11,49,28.40
2010,08,15,11,50,28.40
2010,08,15,11,51,28.60
2010,08,15,11,52,28.60
2010,08,15,11,53,28.60
2010,08,15,11,54,28.60
2010,08,15,11,55,28.60
2010,08,15,11,56,28.60
2010,08,15,11,57,28.60
2010,08,15,11,58,28.60
2010,08,15,11,59,28.60
2010,08,15,12,00,28.60
2010,08,15,12,01,28.60
2010,08,15,12,02,28.60
2010,08,15,12,03,28.60
2010,08,15,12,04,28.50
2010,08,15,12,05,28.40
2010,08,15,12,06,28.50
2010,08,15,12,07,28.60
2010,08,15,12,08,28.70
2010,08,15,12,09,28.70
2010,08,15,12,10,28.70
2010,08,15,12,11,28.60
2010,08,15,12,12,28.50
2010,08,15,12,13,28.40
2010,08,15,12,14,28.30
2010,08,15,12,15,28.30
2010,08,15,12,16,28.30
2010,08,15,12,17,28.40
2010,08,15,12,18,28.50
2010,08,15,12,19,28.60
2010,08,15,12,20,28.60
2010,08,15,12,21,28.60
2010,08,15,12,22,28.60
2010,08,15,12,23,28.40
2010,08,15,12,24,28.40
2010,08,15,12,25,28.50
2010,08,15,12,26,28.60
2010,08,15,12,27,28.70
2010,08,15,12,28,28.80
2010,08,15,12,29,28.90
2010,08,15,12,30,28.90
2010,08,15,12,31,28.90
2010,08,15,12,32,29.10
2010,08,15,12,33,29.10
2010,08,15,12,34,29.20
2010,08,15,12,35,29.20
2010,08,15,12,36,29.10
2010,08,15,12,37,29.10
2010,08,15,12,38,29.10
2010,08,15,12,39,29.10
2010,08,15,12,40,29.00
2010,08,15,12,41,28.90
2010,08,15,12,42,28.90
2010,08,15,12,43,28.90
2010,08,15,12,44,28.90
2010,08,15,12,45,28.90
2010,08,15,12,46,28.90
2010,08,15,12,47,28.90
2010,08,15,12,48,29.00
2010,08,15,12,49,28.90
2010,08,15,12,50,28.90
2010,08,15,12,51,28.90
2010,08,15,12,52,28.90
2010,08,15,12,53,28.90
2010,08,15,12,54,28.90
2010,08,15,12,55,28.90
2010,08,15,12,56,29.00
2010,08,15,12,57,29.10
2010,08,15,12,58,29.00
2010,08,15,12,59,28.90
2010,08,15,13,00,29.00
2010,08,15,13,01,29.00
2010,08,15,13,02,29.00
2010,08,15,13,03,29.10
2010,08,15,13,04,29.10
2010,08,15,13,05,29.20
2010,08,15,13,06,29.30
2010,08,15,13,07,29.30
2010,08,15,13,08,29.50
2010,08,15,13,09,29.60
2010,08,15,13,10,29.80
2010,08,15,13,11,29.80
2010,08,15,13,12,29.90
2010,08,15,13,13,29.90
2010,08,15,13,14,29.90
2010,08,15,13,15,30.10
2010,08,15,13,16,30.10
2010,08,15,13,17,30.20
2010,08,15,13,18,30.30
2010,08,15,13,19,30.30
2010,08,15,13,20,30.30
2010,08,15,13,21,30.20
2010,08,15,13,22,30.20
2010,08,15,13,23,30.20
2010,08,15,13,24,30.20
2010,08,15,13,25,30.10
2010,08,15,13,26,30.10
2010,08,15,13,27,30.20
2010,08,15,13,28,30.20
2010,08,15,13,29,30.20
2010,08,15,13,30,30.20
2010,08,15,13,31,30.20
2010,08,15,13,32,30.30
2010,08,15,13,33,30.30
2010,08,15,13,34,30.30
2010,08,15,13,35,30.40
2010,08,15,13,36,30.40
2010,08,15,13,37,30.40
2010,08,15,13,38,30.40
2010,08,15,13,39,30.40
2010,08,15,13,40,30.40
2010,08,15,13,41,30.40
2010,08,15,13,42,30.40
2010,08,15,13,43,30.60
2010,08,15,13,44,30.70
2010,08,15,13,45,30.70
2010,08,15,13,46,30.80
2010,08,15,13,47,30.70
2010,08,15,13,48,30.60
2010,08,15,13,49,30.60
2010,08,15,13,50,30.60
2010,08,15,13,51,30.60
2010,08,15,13,52,30.70
2010,08,15,13,53,30.80
2010,08,15,13,54,30.70
2010,08,15,13,55,30.70
2010,08,15,13,56,30.70
2010,08,15,13,57,30.80
2010,08,15,13,58,30.80
2010,08,15,13,59,30.80
2010,08,15,14,00,30.80
2010,08,15,14,01,30.80
2010,08,15,14,02,30.90
2010,08,15,14,03,31.00
2010,08,15,14,04,31.00
2010,08,15,14,05,31.10
2010,08,15,14,06,31.10
2010,08,15,14,07,31.10
2010,08,15,14,08,31.20
2010,08,15,14,09,31.20
2010,08,15,14,10,31.30
2010,08,15,14,11,31.30
2010,08,15,14,12,31.30
2010,08,15,14,13,31.30
2010,08,15,14,14,31.20
2010,08,15,14,15,31.20
2010,08,15,14,16,31.20
2010,08,15,14,17,31.20
2010,08,15,14,18,31.30
2010,08,15,14,19,31.40
2010,08,15,14,20,31.40
2010,08,15,14,21,31.50
2010,08,15,14,22,31.60
2010,08,15,14,23,31.60
2010,08,15,14,24,31.50
2010,08,15,14,25,31.40
2010,08,15,14,26,31.30
2010,08,15,14,27,31.30
2010,08,15,14,28,31.30
2010,08,15,14,29,31.30
2010,08,15,14,30,31.30
2010,08,15,14,31,31.30
2010,08,15,14,32,31.30
2010,08,15,14,33,31.30
2010,08,15,14,34,31.40
2010,08,15,14,35,31.60
2010,08,15,14,36,31.60
2010,08,15,14,37,31.70
2010,08,15,14,38,31.80
2010,08,15,14,39,31.80
2010,08,15,14,40,31.90
2010,08,15,14,41,31.90
2010,08,15,14,42,31.90
2010,08,15,14,43,31.90
2010,08,15,14,44,32.00
2010,08,15,14,45,32.10
2010,08,15,14,46,32.10
2010,08,15,14,47,32.10
2010,08,15,14,48,32.10
2010,08,15,14,49,32.10
2010,08,15,14,50,32.20
2010,08,15,14,51,32.20
2010,08,15,14,52,32.20
2010,08,15,14,53,32.30
2010,08,15,14,54,32.30
2010,08,15,14,55,32.30
2010,08,15,14,56,32.30
2010,08,15,14,57,32.30
2010,08,15,14,58,32.30
2010,08,15,14,59,32.30
2010,08,15,15,00,32.20
2010,08,15,15,01,32.20
2010,08,15,15,02,32.30
2010,08,15,15,03,32.30
2010,08,15,15,04,32.40
2010,08,15,15,05,32.50
2010,08,15,15,06,32.50
2010,08,15,15,07,32.40
2010,08,15,15,08,32.30
2010,08,15,15,09,32.20
2010,08,15,15,10,32.10
2010,08,15,15,11,32.10
2010,08,15,15,12,32.10
2010,08,15,15,13,32.10
2010,08,15,15,14,32.00
2010,08,15,15,15,32.00
2010,08,15,15,16,32.10
2010,08,15,15,17,32.10
2010,08,15,15,18,32.20
2010,08,15,15,19,32.30
2010,08,15,15,20,32.40
2010,08,15,15,21,32.40
2010,08,15,15,22,32.40
2010,08,15,15,23,32.30
2010,08,15,15,24,32.20
2010,08,15,15,25,32.20
2010,08,15,15,26,32.30
2010,08,15,15,27,32.30
2010,08,15,15,28,32.40
2010,08,15,15,29,32.40
2010,08,15,15,30,32.40
2010,08,15,15,31,32.50
2010,08,15,15,32,32.50
2010,08,15,15,33,32.60
2010,08,15,15,34,32.60
2010,08,15,15,35,32.60
2010,08,15,15,36,32.60
2010,08,15,15,37,32.60
2010,08,15,15,38,32.60
2010,08,15,15,39,32.60
2010,08,15,15,40,32.60
2010,08,15,15,41,32.60
2010,08,15,15,42,32.80
2010,08,15,15,43,32.90
2010,08,15,15,44,33.00
2010,08,15,15,45,33.10
2010,08,15,15,46,33.10
2010,08,15,15,47,33.10
2010,08,15,15,48,33.10
2010,08,15,15,49,33.10
2010,08,15,15,50,33.20
2010,08,15,15,51,33.20
2010,08,15,15,52,33.40
2010,08,15,15,53,33.30
2010,08,15,15,54,33.20
2010,08,15,15,55,33.10
2010,08,15,15,56,33.10
2010,08,15,15,57,33.20
2010,08,15,15,58,33.30
2010,08,15,15,59,33.40
2010,08,15,16,00,33.40
2010,08,15,16,01,33.50
2010,08,15,16,02,33.50
2010,08,15,16,03,33.50
2010,08,15,16,04,33.60
2010,08,15,16,05,33.60
2010,08,15,16,06,33.70
2010,08,15,16,07,33.70
2010,08,15,16,08,33.60
2010,08,15,16,09,33.60
2010,08,15,16,10,33.70
2010,08,15,16,11,33.80
2010,08,15,16,12,33.80
2010,08,15,16,13,34.00
2010,08,15,16,14,34.00
2010,08,15,16,15,33.90
2010,08,15,16,16,33.70
2010,08,15,16,17,33.50
2010,08,15,16,18,33.50
2010,08,15,16,19,33.40
2010,08,15,16,20,33.40
2010,08,15,16,21,33.20
2010,08,15,16,22,33.20
2010,08,15,16,23,33.10
2010,08,15,16,24,33.10
2010,08,15,16,25,33.00
2010,08,15,16,26,32.90
2010,08,15,16,27,32.90
2010,08,15,16,28,32.80
2010,08,15,16,29,32.80
2010,08,15,16,30,32.60
2010,08,15,16,31,32.60
2010,08,15,16,32,32.50
2010,08,15,16,33,32.40
2010,08,15,16,34,32.40
2010,08,15,16,35,32.30
2010,08,15,16,36,32.30
2010,08,15,16,37,32.30
2010,08,15,16,38,32.30
2010,08,15,16,39,32.30
2010,08,15,16,40,32.30
2010,08,15,16,41,32.30
2010,08,15,16,42,32.30
2010,08,15,16,43,32.30
2010,08,15,16,44,32.20
2010,08,15,16,45,32.20
2010,08,15,16,46,32.20
2010,08,15,16,47,32.20
2010,08,15,16,48,32.20
2010,08,15,16,49,32.20
2010,08,15,16,50,32.10
2010,08,15,16,51,32.10
2010,08,15,16,52,32.10
2010,08,15,16,53,32.10
2010,08,15,16,54,32.10
2010,08,15,16,55,32.10
2010,08,15,16,56,32.10
2010,08,15,16,57,32.10
2010,08,15,16,58,32.10
2010,08,15,16,59,32.10
2010,08,15,17,00,32.10
2010,08,15,17,01,32.10
2010,08,15,17,02,31.90
2010,08,15,17,03,31.90
2010,08,15,17,04,31.90
2010,08,15,17,05,31.90
2010,08,15,17,06,31.90
2010,08,15,17,07,31.90
2010,08,15,17,08,31.80
2010,08,15,17,09,31.80
2010,08,15,17,10,31.80
2010,08,15,17,11,31.70
2010,08,15,17,12,31.60
2010,08,15,17,13,31.60
2010,08,15,17,14,31.40
2010,08,15,17,15,31.40
2010,08,15,17,16,31.40
2010,08,15,17,17,31.30
2010,08,15,17,18,31.30
2010,08,15,17,19,31.20